Find Starlink 31957

NORAD ID: 59926 Int'l Des: 2024-106 Owner: SPXS Country: US Constellation: starlink operational
LEOCIRCULAR

現在のビュー

3D地球を読み込み中...

About Starlink 31957

Starlink 31957 (NORAD 59926) is a starlink constellation satellite (v2 mini) launched Jun 1, 2024 by SPXS of US. It operates in LEO, CIRCULAR orbit with a mass of 730.00 kg.

Starlink 31957について

説明を読み込み中...

次回通過

Passes for default location (London). Set your location on the main map for personalized predictions.

高度履歴

Loading altitude history...

軌道要素

1 59926U 24106E 26170.21194426 .00000140 00000-0 14613-4 0 9993
2 59926 42.9992 118.8066 0000962 260.3676 99.7067 15.27574792116101
Epoch: Jun 19, 2026 • Age: 12 hours

現在のステータス

高度 482.3 km
速度 7.63 km/s
衛星直下点 6.15°N, 129.27°E
打ち上げ日 Jun 1, 2024
運用期間 2 years
タイプ internet

技術仕様

分類 Payload
質量 730.00 kg
乾燥質量 700.00 kg
総質量 730.00 kg
長さ 0.30 m
直径 4.10 m
スパン 29.00 m
形状 Box + pan
製造者 SPXS
バスタイプ Starlink V2M
フェーズステータス In Orbit
所有者/国 SPXS/US

Most Searched